Weather in Bagulny

Russia / Zabaykalsky Krai     52°24′25″N   116°47′58″E
temp.,
°C
wind,
m/s
gust,
m/s
humid.,
%
clouds,
%
prec.,
mm/h
press.,
hPa
HPBL,
m
18 april, sun
sun1800:00+7sw114098 0.0 100210
03:00+5s114488 0.0 100210
06:00+3sse115174 0.0 100210
09:00+7s233985 0.0 1001242
12:00+12wnw6732100 0.0 10001140
15:00+10nw8104392 0.0 10011433
18:00+9nw1012365 0.0 10051873
21:00−1n813422 0.0 1015996
19 april, mon
mon1900:00−4nnw613320 0.0 1020863
03:00−6nnw49380 0.0 1023505
06:00−8nw23445 0.0 102565
09:00−4nnw452131 0.0 1025811
12:00+1nnw121397 0.0 10231304
15:00+3wsw45125 0.0 10202081
18:00+4sw25140 0.0 10192177
21:000sse34234 0.0 101955
20 april, tue
tue2000:00−2se2226100 0.0 101918
03:00−3ene222910 0.0 101612
06:00−4ene113146 0.0 101411
09:00+2sse2424100 0.0 1012316
12:00+6sw242895 0.1 1009671
15:00+13s37225 0.1 10051447
18:00+17s3720100 0.0 10021818
21:00+10ese12385 0.0 100310
21 april, wed
wed2100:00+7ese114828 0.0 100410
03:00+5nne116161 0.0 100410
06:00+3n33665 0.0 100520
09:00+8n46435 0.0 1005394
12:00+14ne33308 0.0 10031002
15:00+17n3226100 0.0 10021764
18:00+12n884366 0.0 1004709
21:00+7n61151100 0.0 1009517
22 april, thu
thu2200:00+4n596034 0.0 1012432
03:00+2nnw4972100 0.0 1015367
06:000n3867100 0.0 1017337
09:00+3n574290 0.0 1020709
12:00+7n662897 0.1 10211356
15:00+9n56195 0.1 10202038
18:00+9n6618100 0.0 10232007
21:00+5nne61032100 0.0 1027577